Weather in Mezhegey

Russia / Tyva Republic     51°15′20″N   94°19′21″E
temp.,
°C
wind,
m/s
gust,
m/s
humid.,
%
clouds,
%
prec.,
mm/h
press.,
hPa
HPBL,
m
5 december, sun
sun501:00−18ssw119747 0.0 104010
04:00−19s1110033 0.0 104210
07:00−20s1110074 0.0 104510
10:00−19n1110076 0.0 104533
13:00−17nne119977 0.0 104478
16:00−17nnw01100100 0.0 104112
19:00−18wsw1199100 0.0 104010
22:00−19ssw119956 0.0 104010
6 december, mon
mon601:00−19sw00100100 0.0 103910
04:00−20ssw00100100 0.0 103910
07:00−21ssw1110074 0.0 10409
10:00−20n00100100 0.0 104035
13:00−18n119978 0.0 103869
16:00−20sw0010078 0.0 10389
19:00−20ssw119974 0.0 10389
22:00−21ssw119972 0.0 10399
7 december, tue
tue701:00−22ssw119977 0.0 10389
04:00−23ssw1110075 0.0 10379
07:00−23sw0010091 0.0 10379
10:00−21nnw1199100 0.0 103634
13:00−19nne1199100 0.0 103469
16:00−17ne11100100 0.0 103343
19:00−17ssw00100100 0.0 103310
22:00−16nne1199100 0.0 103336
8 december, wed
wed801:00−20sw2110071 0.0 10369
04:00−18sw119561 0.0 103610
07:00−15nnw009597 0.0 103610
10:00−17ne0110061 0.0 103918
13:00−15nne119988 0.0 103896
16:00−18ssw0010096 0.0 10389
19:00−18sw009999 0.0 10389
22:00−18ssw0099100 0.0 10379
9 december, thu
thu901:00−17wnw1198100 0.0 103628
04:00−15nw1197100 0.4 103551
07:00−14wnw0096100 1.3 103648
10:00−13n0195100 0.5 103782
13:00−12nne1194100 0.8 1037148
16:00−13ne0198100 0.1 103911
19:00−15ssw1198100 0.2 104210
22:00−16ssw119784 0.1 104310